Regional Weather Roundup
Issued by NWS

Home | Current Version | Previous Version | Graphics & Text | Print | Product List | Glossary On
Versions: 1 2 3 4 5 6 7 8 9 10 11 12 13 14 15 16 17 18 19 20 21 22 23 24 25 26 27 28 29 30 31 32 33 34 35 36 37 38 39 40 41 42 43 44 45 46 47 48 49 50
000
ASUS45 KBOU 231107
RWRCO

WEATHER ROUNDUP FOR COLORADO
NATIONAL WEATHER SERVICE DENVER/BOULDER CO
500 AM MDT SAT AUG 23 2014

NOTE: "FAIR" INDICATES FEW OR NO CLOUDS BELOW 12000 FEET WITH NO
SIGNIFICANT WEATHER AND/OR OBSTRUCTIONS TO VISIBILITY.

COZ001>005-013-030-031-231200-
...NORTHWEST COLORADO...

CITY           SKY/WX    TMP DP  RH WIND       PRES   REMARKS
CRAIG          RAIN      49  46  90 SW6       30.17S FOG
HAYDEN         CLOUDY    46  43  87 W10       30.16R
MEEKER         RAIN      50  46  86 SE3       30.16S
MOUNT WERNER   NOT AVBL
STEAMBOAT SPGS CLOUDY    47  44  89 SW10G20   30.16R
WALDEN         MOCLDY    50  43  76 S7        30.13S
$$

COZ006>008-011-231200-
...WEST CENTRAL VALLEYS...

CITY           SKY/WX    TMP DP  RH WIND       PRES   REMARKS
GRAND JUNCTION CLOUDY    56  55  97 NW3       30.04S
MONTROSE       CLOUDY    61  50  67 E9        30.07F
EAGLE          CLOUDY    52  48  87 CALM      30.11S
RIFLE          LGT RAIN  54  49  83 W9        30.10R
DELTA          RAIN      61  54  75 SW9       30.05R
NUCLA          CLOUDY    55  50  82 CALM      30.12S
$$

COZ017>023-064>068-231200-
...SOUTHWEST COLORADO...

CITY           SKY/WX    TMP DP  RH WIND       PRES   REMARKS
DURANGO        PTCLDY    49  48  97 NE3       30.20S
CORTEZ         CLOUDY    55  52  89 E6        30.13S
PAGOSA SPRINGS PTCLDY    49  48  95 CALM      30.26S
TELLURIDE      CLOUDY    52  45  76 CALM      30.26F
WOLF CREEK PAS NOT AVBL
$$

COZ009-010-012-014-032>034-037-058>063-231200-
...CENTRAL COLORADO...

CITY           SKY/WX    TMP DP  RH WIND       PRES   REMARKS
ASPEN          MOCLDY    48  42  80 SW7       30.14F
BUENA VISTA    PTCLDY    41  39  93 CALM      30.17F
COPPER MTN     CLEAR     45  34  65 S21G29    30.36F
BERTHOUD PASS  FAIR      34  34 100 W21G26    30.38F FOG     WCI  22
COTTONWOOD PAS PTCLDY    50  39  66 W5G17     30.26F
GUNNISON       MOCLDY    48  43  81 CALM      30.22F
KREMMLING      PTCLDY    46  43  87 SW3       30.14S
LEADVILLE      FOG       40  39  97 CALM      30.26F VSB 1/2
MONARCH PASS   FOG       37  36  93 SW24G30   30.48F VSB<1/4
SALIDA         PTCLDY    52  46  79 NE5       30.22F
SUNLIGHT       RAIN      43  41  93 SW3       30.33R VSB 1
WILKERSON PASS NOT AVBL
$$

COZ069>075-231200-
...SAN LUIS VALLEY/SANGRE DE CRISTO MOUNTAINS...

CITY           SKY/WX    TMP DP  RH WIND       PRES   REMARKS
ALAMOSA        CLOUDY    49  47  93 S5        30.20F
LA VETA PASS   NOT AVBL
SAGUACHE       CLOUDY    48  48 100 NW3       30.22F
$$

COZ035-036-038>040-231200-
...NORTHERN COLORADO FRONT RANGE...

CITY           SKY/WX    TMP DP  RH WIND       PRES   REMARKS
DENVER INTL AP PTCLDY    56  54  93 SW6       29.97F
DMNS CITY PARK   N/A     57  55  94 SW1       29.97F
AURORA         NOT AVBL
FRONT RANGE AP PTCLDY    57  55  94 SE5       29.99S
ERIE MUNI ARPT PTCLDY    56  55  95 N3        29.97S
BOULDER MUN AP CLOUDY    59  59 100 CALM      29.97F
CENTENNIAL     PTCLDY    56  53  90 S6        29.99F
BROOMFIELD     PTCLDY    59  55  88 CALM      29.99F
FORT COLLINS   MOCLDY    61  57  88 CALM      29.98F
LONGMONT       CLOUDY    63  60  90 CALM      29.99S
$$

COZ041-046-047-076>085-087-088-231200-
...PIKES PEAK/PALMER DIVIDE AND SOUTHERN FOOTHILLS...

CITY           SKY/WX    TMP DP  RH WIND       PRES   REMARKS
COLO. SPRINGS  CLOUDY    59  54  83 CALM      30.05F
A. F. ACADEMY  MOCLDY    51  50  99 E3        30.05F
ELLICOTT       FOG       49  49 100 CALM      30.03F VSB 3/4
FALCON         CLOUDY    54  54  99 CALM      30.09S
FORT CARSON    PTCLDY    52  52 100 N3        30.02F
LIMON          CLOUDY    57  57 100 CALM      30.00F
MONUMENT HILL  PTCLDY    50  46  87 SW5       30.06F
TRINIDAD       CLEAR     54  49  83 W13       30.05F
$$

COZ042>045-048>051-090-091-231200-
...NORTHEAST COLORADO...

CITY           SKY/WX    TMP DP  RH WIND       PRES   REMARKS
GREELEY ARPT   PTCLDY    57  52  82 CALM      29.97F
AKRON          CLOUDY    61  60  97 S5        29.95F
BURLINGTON     MOCLDY    63  61  93 SW3       29.92F
WRAY             N/A    N/A N/A N/A CALM      29.92F
STERLING       CLOUDY    64  63  94 CALM      29.93F
HOLYOKE        NOT AVBL
FORT MORGAN    CLOUDY    60  58  94 E3        29.95F
$$

COZ086-089-092>099-231200-
...SOUTHEAST COLORADO...

CITY           SKY/WX    TMP DP  RH WIND       PRES   REMARKS
PUEBLO         CLEAR     53  50  89 CALM      29.98S
LA JUNTA       CLEAR     60  58  92 W7        29.94F
LAMAR          PTCLDY    60  58  92 W5        29.90F
SPRINGFIELD      N/A     65  57  75 SW15G24   29.94F
$$


USA.gov is the U.S. government's official web portal to all federal, state and local government web resources and services.